Time,TemperatureF,DewpointF,PressureIn,WindDirection,WindDirectionDegrees,WindSpeedMPH,WindSpeedGustMPH,Humidity,HourlyPrecipIn,Conditions,Clouds,dailyrainin,SoftwareType,DateUTC
2013-05-04 00:00:00,22.9,8.0,29.75,NNE,33,0.0,0.0,56,0.00,,,0.00,TxWx,2013-05-04 05:00:00,
2013-05-04 00:05:00,22.8,7.0,29.75,NNE,27,0.0,0.0,53,0.00,,,0.00,TxWx,2013-05-04 05:05:00,
2013-05-04 00:12:00,22.8,6.0,29.75,NE,34,0.0,0.0,51,0.00,,,0.00,TxWx,2013-05-04 05:12:00,
2013-05-04 00:18:00,23.0,5.0,29.75,NE,36,0.0,0.0,48,0.00,,,0.00,TxWx,2013-05-04 05:18:00,
2013-05-04 00:23:00,22.8,5.0,29.76,NE,45,0.0,0.0,48,0.00,,,0.00,TxWx,2013-05-04 05:23:00,
2013-05-04 00:28:00,22.8,4.0,29.75,NE,38,0.0,0.0,46,0.00,,,0.00,TxWx,2013-05-04 05:28:00,
2013-05-04 00:33:00,23.0,4.0,29.75,NE,34,0.0,0.0,45,0.00,,,0.00,TxWx,2013-05-04 05:33:00,
2013-05-04 00:39:00,22.5,2.0,29.75,NE,35,0.0,0.0,44,0.00,,,0.00,TxWx,2013-05-04 05:39:00,
2013-05-04 00:44:00,22.8,3.0,29.75,NE,37,0.0,0.0,44,0.00,,,0.00,TxWx,2013-05-04 05:44:00,
2013-05-04 00:49:00,22.5,2.0,29.75,NE,35,0.0,0.0,43,0.00,,,0.00,TxWx,2013-05-04 05:49:00,
2013-05-04 00:54:00,22.4,1.0,29.75,NE,39,0.0,0.0,42,0.00,,,0.00,TxWx,2013-05-04 05:54:00,
2013-05-04 01:00:00,21.5,0.0,29.75,NE,36,0.0,0.0,42,0.00,,,0.00,TxWx,2013-05-04 06:00:00,
2013-05-04 01:05:00,21.7,1.0,29.75,NNE,33,0.0,0.0,42,0.00,,,0.00,TxWx,2013-05-04 06:05:00,
2013-05-04 01:10:00,21.6,1.0,29.75,NNE,31,0.0,0.0,42,0.00,,,0.00,TxWx,2013-05-04 06:10:00,
2013-05-04 01:16:00,21.9,1.0,29.75,NE,36,0.0,0.0,41,0.00,,,0.00,TxWx,2013-05-04 06:16:00,
2013-05-04 01:21:00,22.3,1.0,29.75,NE,36,0.0,0.0,41,0.00,,,0.00,TxWx,2013-05-04 06:21:00,
2013-05-04 01:26:00,22.2,1.0,29.75,NE,34,0.0,0.0,41,0.00,,,0.00,TxWx,2013-05-04 06:26:00,
2013-05-04 01:31:00,22.3,1.0,29.75,NNE,20,0.0,0.0,41,0.00,,,0.00,TxWx,2013-05-04 06:31:00,
2013-05-04 01:36:00,22.3,1.0,29.75,NNE,25,0.0,0.0,41,0.00,,,0.00,TxWx,2013-05-04 06:36:00,
2013-05-04 01:41:00,21.8,1.0,29.75,NNE,21,0.0,0.0,41,0.00,,,0.00,TxWx,2013-05-04 06:41:00,
2013-05-04 01:46:00,22.1,1.0,29.75,NNE,23,0.0,0.0,41,0.00,,,0.00,TxWx,2013-05-04 06:46:00,
2013-05-04 01:52:00,22.0,1.0,29.75,NNE,32,0.0,0.0,41,0.00,,,0.00,TxWx,2013-05-04 06:52:00,
2013-05-04 01:57:00,21.8,1.0,29.75,NNE,25,0.0,0.0,41,0.00,,,0.00,TxWx,2013-05-04 06:57:00,
2013-05-04 02:02:00,21.7,1.0,29.75,NE,34,0.0,0.0,42,0.00,,,0.00,TxWx,2013-05-04 07:02:00,
2013-05-04 02:07:00,21.2,1.0,29.75,NNE,28,0.0,0.0,43,0.00,,,0.00,TxWx,2013-05-04 07:07:00,
2013-05-04 02:12:00,21.2,1.0,29.75,NNE,24,0.0,0.0,43,0.00,,,0.00,TxWx,2013-05-04 07:12:00,
2013-05-04 02:17:00,21.2,1.0,29.75,NNE,20,0.0,0.0,44,0.00,,,0.00,TxWx,2013-05-04 07:17:00,
2013-05-04 02:23:00,20.9,1.0,29.75,NE,38,0.0,0.0,44,0.00,,,0.00,TxWx,2013-05-04 07:23:00,
2013-05-04 02:28:00,20.8,1.0,29.75,NNE,28,0.0,0.0,44,0.00,,,0.00,TxWx,2013-05-04 07:28:00,
2013-05-04 02:33:00,20.4,1.0,29.75,NNE,32,0.0,0.0,45,0.00,,,0.00,TxWx,2013-05-04 07:33:00,
2013-05-04 02:38:00,20.2,1.0,29.75,NE,35,0.0,0.0,45,0.00,,,0.00,TxWx,2013-05-04 07:38:00,
2013-05-04 02:43:00,20.3,1.0,29.75,NNE,25,0.0,0.0,45,0.00,,,0.00,TxWx,2013-05-04 07:43:00,
2013-05-04 02:49:00,20.4,1.0,29.75,NNE,28,0.0,0.0,45,0.00,,,0.00,TxWx,2013-05-04 07:49:00,
2013-05-04 02:54:00,20.3,1.0,29.75,NNE,29,0.0,0.0,46,0.00,,,0.00,TxWx,2013-05-04 07:54:00,
2013-05-04 02:59:00,20.1,1.0,29.75,NE,37,0.0,0.0,46,0.00,,,0.00,TxWx,2013-05-04 07:59:00,
2013-05-04 03:04:00,20.1,1.0,29.75,NE,34,0.0,0.0,46,0.00,,,0.00,TxWx,2013-05-04 08:04:00,
2013-05-04 03:09:00,20.1,1.0,29.75,NE,37,0.0,0.0,46,0.00,,,0.00,TxWx,2013-05-04 08:09:00,
2013-05-04 03:15:00,20.0,2.0,29.75,NNE,24,0.0,0.0,46,0.00,,,0.00,TxWx,2013-05-04 08:15:00,
2013-05-04 03:20:00,20.0,2.0,29.75,NE,36,0.0,0.0,46,0.00,,,0.00,TxWx,2013-05-04 08:20:00,
2013-05-04 03:25:00,19.9,2.0,29.75,NNE,31,0.0,0.0,46,0.00,,,0.00,TxWx,2013-05-04 08:25:00,
2013-05-04 03:30:00,19.9,2.0,29.75,NNE,29,0.0,0.0,46,0.00,,,0.00,TxWx,2013-05-04 08:30:00,
2013-05-04 03:36:00,19.9,1.0,29.75,NE,41,0.0,0.0,46,0.00,,,0.00,TxWx,2013-05-04 08:36:00,
2013-05-04 03:41:00,19.9,1.0,29.75,NE,36,0.0,0.0,46,0.00,,,0.00,TxWx,2013-05-04 08:41:00,
2013-05-04 03:46:00,19.9,1.0,29.75,NNE,32,0.0,0.0,46,0.00,,,0.00,TxWx,2013-05-04 08:46:00,
2013-05-04 03:51:00,19.8,1.0,29.75,NNE,31,0.0,0.0,46,0.00,,,0.00,TxWx,2013-05-04 08:51:00,
2013-05-04 03:56:00,20.0,1.0,29.76,NE,44,0.0,0.0,46,0.00,,,0.00,TxWx,2013-05-04 08:56:00,
2013-05-04 04:02:00,19.9,1.0,29.76,NE,38,0.0,0.0,45,0.00,,,0.00,TxWx,2013-05-04 09:02:00,
2013-05-04 04:07:00,20.0,1.0,29.76,NE,35,0.0,0.0,45,0.00,,,0.00,TxWx,2013-05-04 09:07:00,
2013-05-04 04:12:00,19.9,1.0,29.76,NE,39,0.0,0.0,45,0.00,,,0.00,TxWx,2013-05-04 09:12:00,
2013-05-04 04:17:00,19.9,1.0,29.76,NE,35,0.0,0.0,46,0.00,,,0.00,TxWx,2013-05-04 09:17:00,
2013-05-04 04:22:00,19.8,2.0,29.76,NE,35,0.0,0.0,46,0.00,,,0.00,TxWx,2013-05-04 09:22:00,
2013-05-04 04:27:00,19.7,2.0,29.76,NE,34,0.0,0.0,46,0.00,,,0.00,TxWx,2013-05-04 09:27:00,
2013-05-04 04:33:00,19.8,2.0,29.76,NE,36,0.0,0.0,47,0.00,,,0.00,TxWx,2013-05-04 09:33:00,
2013-05-04 04:38:00,19.9,2.0,29.77,NNE,28,0.0,0.0,47,0.00,,,0.00,TxWx,2013-05-04 09:38:00,
2013-05-04 04:43:00,19.9,2.0,29.77,NNE,27,0.0,0.0,47,0.00,,,0.00,TxWx,2013-05-04 09:43:00,
2013-05-04 04:48:00,20.0,2.0,29.77,NE,35,0.0,0.0,47,0.00,,,0.00,TxWx,2013-05-04 09:48:00,
2013-05-04 04:53:00,19.9,2.0,29.77,NE,38,0.0,0.0,47,0.00,,,0.00,TxWx,2013-05-04 09:53:00,
2013-05-04 04:59:00,19.7,2.0,29.77,NE,34,0.0,0.0,48,0.00,,,0.00,TxWx,2013-05-04 09:59:00,
2013-05-04 05:04:00,19.6,2.0,29.77,NNE,27,0.0,0.0,48,0.00,,,0.00,TxWx,2013-05-04 10:04:00,
2013-05-04 05:09:00,19.5,2.0,29.77,NNE,16,0.0,0.0,48,0.00,,,0.00,TxWx,2013-05-04 10:09:00,
2013-05-04 05:14:00,19.5,2.0,29.77,NE,38,0.0,0.0,48,0.00,,,0.00,TxWx,2013-05-04 10:14:00,
2013-05-04 05:19:00,19.6,2.0,29.77,NNE,25,0.0,0.0,48,0.00,,,0.00,TxWx,2013-05-04 10:19:00,
2013-05-04 05:24:00,19.6,2.0,29.77,NNE,29,0.0,0.0,48,0.00,,,0.00,TxWx,2013-05-04 10:24:00,
2013-05-04 05:30:00,19.6,2.0,29.77,NNE,29,0.0,0.0,48,0.00,,,0.00,TxWx,2013-05-04 10:30:00,
2013-05-04 05:35:00,19.8,3.0,29.77,NE,38,0.0,0.0,49,0.00,,,0.00,TxWx,2013-05-04 10:35:00,
2013-05-04 05:40:00,19.9,3.0,29.77,NNE,32,0.0,0.0,49,0.00,,,0.00,TxWx,2013-05-04 10:40:00,
2013-05-04 05:46:00,19.9,3.0,29.78,NE,40,0.0,0.0,49,0.00,,,0.00,TxWx,2013-05-04 10:46:00,
2013-05-04 05:51:00,20.0,3.0,29.78,NNE,26,0.0,0.0,49,0.00,,,0.00,TxWx,2013-05-04 10:51:00,
2013-05-04 05:56:00,20.3,2.0,29.78,NNE,33,0.0,0.0,48,0.00,,,0.00,TxWx,2013-05-04 10:56:00,
2013-05-04 06:02:00,20.1,3.0,29.78,NNE,26,0.0,0.0,49,0.00,,,0.00,TxWx,2013-05-04 11:02:00,
2013-05-04 06:07:00,20.2,2.0,29.78,NNE,17,0.0,0.0,48,0.00,,,0.00,TxWx,2013-05-04 11:07:00,
2013-05-04 06:12:00,20.3,3.0,29.79,NNE,25,0.0,0.0,49,0.00,,,0.00,TxWx,2013-05-04 11:12:00,
2013-05-04 06:17:00,20.6,4.0,29.79,NNE,26,0.0,0.0,49,0.00,,,0.00,TxWx,2013-05-04 11:17:00,
2013-05-04 06:22:00,20.5,3.0,29.79,NNE,17,0.0,0.0,49,0.00,,,0.00,TxWx,2013-05-04 11:22:00,
2013-05-04 06:28:00,20.5,4.0,29.79,NE,36,0.0,0.0,49,0.00,,,0.00,TxWx,2013-05-04 11:28:00,
2013-05-04 06:33:00,20.7,4.0,29.80,NNE,26,0.0,0.0,49,0.00,,,0.00,TxWx,2013-05-04 11:33:00,
2013-05-04 06:38:00,20.6,4.0,29.79,NNE,20,0.0,0.0,49,0.00,,,0.00,TxWx,2013-05-04 11:38:00,
2013-05-04 06:45:00,20.7,4.0,29.80,NE,37,0.0,0.0,49,0.00,,,0.00,TxWx,2013-05-04 11:45:00,
2013-05-04 06:53:00,20.7,4.0,29.80,NNE,33,0.0,0.0,49,0.00,,,0.00,TxWx,2013-05-04 11:53:00,
2013-05-04 07:01:00,20.5,4.0,29.80,NE,35,0.0,0.0,50,0.00,,,0.00,TxWx,2013-05-04 12:01:00,
2013-05-04 07:09:00,20.8,4.0,29.80,NNE,20,0.0,0.0,50,0.00,,,0.00,TxWx,2013-05-04 12:09:00,
2013-05-04 07:14:00,20.8,4.0,29.80,NNE,32,0.0,0.0,50,0.00,,,0.00,TxWx,2013-05-04 12:14:00,
2013-05-04 07:19:00,21.1,4.0,29.80,NE,37,0.0,0.0,50,0.00,,,0.00,TxWx,2013-05-04 12:19:00,
2013-05-04 07:28:00,20.9,4.0,29.81,NNE,33,0.0,0.0,50,0.00,,,0.00,TxWx,2013-05-04 12:28:00,
2013-05-04 07:36:00,21.4,4.0,29.81,NE,42,0.0,0.0,50,0.00,,,0.00,TxWx,2013-05-04 12:36:00,
2013-05-04 07:41:00,21.4,4.0,29.81,NE,35,0.0,0.0,50,0.00,,,0.00,TxWx,2013-05-04 12:41:00,
2013-05-04 07:47:00,21.6,5.0,29.81,NE,38,0.0,0.0,50,0.00,,,0.00,TxWx,2013-05-04 12:47:00,
2013-05-04 07:52:00,21.8,5.0,29.81,NNE,30,0.0,0.0,49,0.00,,,0.00,TxWx,2013-05-04 12:52:00,
2013-05-04 07:57:00,21.9,5.0,29.81,NE,43,0.0,0.0,49,0.00,,,0.00,TxWx,2013-05-04 12:57:00,
2013-05-04 08:02:00,21.8,5.0,29.81,NE,40,0.0,0.0,49,0.00,,,0.00,TxWx,2013-05-04 13:02:00,
2013-05-04 08:04:00,21.8,5.0,29.81,NNE,32,0.0,0.0,49,0.00,,,0.00,TxWx,2013-05-04 13:04:00,
2013-05-04 08:09:00,21.8,4.0,29.81,NE,44,0.0,0.0,48,0.00,,,0.00,TxWx,2013-05-04 13:09:00,
2013-05-04 08:14:00,21.8,4.0,29.81,NE,37,0.0,0.0,48,0.00,,,0.00,TxWx,2013-05-04 13:14:00,
2013-05-04 08:20:00,22.0,5.0,29.81,NNE,33,0.0,0.0,49,0.00,,,0.00,TxWx,2013-05-04 13:20:00,
2013-05-04 08:25:00,21.9,5.0,29.81,NE,42,0.0,0.0,49,0.00,,,0.00,TxWx,2013-05-04 13:25:00,
2013-05-04 08:30:00,21.9,5.0,29.81,NE,42,0.0,0.0,49,0.00,,,0.00,TxWx,2013-05-04 13:30:00,
2013-05-04 08:35:00,22.0,5.0,29.81,NNE,25,0.0,0.0,49,0.00,,,0.00,TxWx,2013-05-04 13:35:00,
2013-05-04 08:41:00,22.1,5.0,29.81,NE,35,0.0,0.0,49,0.00,,,0.00,TxWx,2013-05-04 13:41:00,
2013-05-04 08:46:00,22.2,5.0,29.81,NNE,28,0.0,0.0,49,0.00,,,0.00,TxWx,2013-05-04 13:46:00,
2013-05-04 08:51:00,22.2,5.0,29.82,NE,37,0.0,0.0,49,0.00,,,0.00,TxWx,2013-05-04 13:51:00,
2013-05-04 08:56:00,22.2,5.0,29.82,NE,39,0.0,0.0,49,0.00,,,0.00,TxWx,2013-05-04 13:56:00,
2013-05-04 09:02:00,22.5,5.0,29.81,NE,34,0.0,0.0,49,0.00,,,0.00,TxWx,2013-05-04 14:02:00,
2013-05-04 09:07:00,22.4,4.0,29.81,NNE,33,0.0,0.0,48,0.00,,,0.00,TxWx,2013-05-04 14:07:00,
2013-05-04 09:12:00,22.4,4.0,29.81,NE,37,0.0,0.0,48,0.00,,,0.00,TxWx,2013-05-04 14:12:00,
2013-05-04 09:21:00,22.5,4.0,29.81,NE,43,0.0,0.0,48,0.00,,,0.00,TxWx,2013-05-04 14:21:00,
2013-05-04 09:26:00,22.7,5.0,29.81,NNE,29,0.0,0.0,48,0.00,,,0.00,TxWx,2013-05-04 14:26:00,
2013-05-04 09:31:00,22.8,5.0,29.81,NE,39,0.0,0.0,48,0.00,,,0.00,TxWx,2013-05-04 14:31:00,
2013-05-04 09:36:00,23.0,5.0,29.81,NNE,25,0.0,0.0,48,0.00,,,0.00,TxWx,2013-05-04 14:36:00,
2013-05-04 09:42:00,23.1,5.0,29.81,NE,44,0.0,0.0,47,0.00,,,0.00,TxWx,2013-05-04 14:42:00,
2013-05-04 09:47:00,23.3,4.0,29.81,NE,34,0.0,0.0,46,0.00,,,0.00,TxWx,2013-05-04 14:47:00,
2013-05-04 09:52:00,23.5,5.0,29.81,NNE,29,0.0,0.0,47,0.00,,,0.00,TxWx,2013-05-04 14:52:00,
2013-05-04 09:57:00,23.2,4.0,29.81,NE,46,0.0,0.0,46,0.00,,,0.00,TxWx,2013-05-04 14:57:00,
2013-05-04 10:02:00,23.4,4.0,29.81,NE,41,0.0,0.0,46,0.00,,,0.00,TxWx,2013-05-04 15:02:00,
2013-05-04 10:08:00,23.2,4.0,29.81,NE,41,0.0,0.0,46,0.00,,,0.00,TxWx,2013-05-04 15:08:00,
2013-05-04 10:13:00,23.4,4.0,29.81,NE,34,0.0,0.0,46,0.00,,,0.00,TxWx,2013-05-04 15:13:00,
2013-05-04 10:18:00,23.5,4.0,29.81,NE,40,0.0,0.0,46,0.00,,,0.00,TxWx,2013-05-04 15:18:00,
2013-05-04 10:23:00,23.5,4.0,29.81,NNE,25,0.0,0.0,46,0.00,,,0.00,TxWx,2013-05-04 15:23:00,
2013-05-04 10:28:00,23.6,5.0,29.81,NE,39,0.0,0.0,46,0.00,,,0.00,TxWx,2013-05-04 15:28:00,
2013-05-04 10:33:00,23.8,4.0,29.81,NE,37,0.0,0.0,44,0.00,,,0.00,TxWx,2013-05-04 15:33:00,
2013-05-04 10:38:00,23.9,4.0,29.81,NNE,27,0.0,0.0,44,0.00,,,0.00,TxWx,2013-05-04 15:38:00,
2013-05-04 10:43:00,23.8,4.0,29.81,NE,44,0.0,0.0,43,0.00,,,0.00,TxWx,2013-05-04 15:43:00,
2013-05-04 10:48:00,23.9,3.0,29.81,NNE,29,0.0,0.0,43,0.00,,,0.00,TxWx,2013-05-04 15:48:00,
2013-05-04 10:54:00,24.4,4.0,29.80,NE,37,0.0,0.0,44,0.00,,,0.00,TxWx,2013-05-04 15:54:00,
2013-05-04 10:59:00,24.3,4.0,29.80,NE,35,0.0,0.0,43,0.00,,,0.00,TxWx,2013-05-04 15:59:00,
2013-05-04 11:04:00,24.4,3.0,29.81,NE,38,0.0,0.0,43,0.00,,,0.00,TxWx,2013-05-04 16:04:00,
2013-05-04 11:09:00,24.5,4.0,29.81,NNE,31,0.0,0.0,43,0.00,,,0.00,TxWx,2013-05-04 16:09:00,
2013-05-04 11:14:00,24.7,4.0,29.80,NNE,29,0.0,0.0,43,0.00,,,0.00,TxWx,2013-05-04 16:14:00,
2013-05-04 11:20:00,24.7,4.0,29.80,NNE,26,0.0,0.0,43,0.00,,,0.00,TxWx,2013-05-04 16:20:00,
2013-05-04 11:25:00,24.5,4.0,29.80,NNE,28,0.0,0.0,42,0.00,,,0.00,TxWx,2013-05-04 16:25:00,
2013-05-04 11:30:00,24.5,4.0,29.80,NE,45,0.0,0.0,43,0.00,,,0.00,TxWx,2013-05-04 16:30:00,
2013-05-04 11:35:00,24.7,4.0,29.80,NNE,32,0.0,0.0,43,0.00,,,0.00,TxWx,2013-05-04 16:35:00,
2013-05-04 11:40:00,24.7,4.0,29.80,NNE,25,0.0,0.0,43,0.00,,,0.00,TxWx,2013-05-04 16:40:00,
2013-05-04 11:46:00,25.2,4.0,29.80,NNE,27,0.0,0.0,42,0.00,,,0.00,TxWx,2013-05-04 16:46:00,
2013-05-04 11:51:00,24.9,4.0,29.80,NNE,32,0.0,0.0,42,0.00,,,0.00,TxWx,2013-05-04 16:51:00,
2013-05-04 11:56:00,24.7,4.0,29.80,NE,36,0.0,0.0,42,0.00,,,0.00,TxWx,2013-05-04 16:56:00,
2013-05-04 12:01:00,24.9,4.0,29.80,NE,40,0.0,0.0,42,0.00,,,0.00,TxWx,2013-05-04 17:01:00,
2013-05-04 12:06:00,24.9,4.0,29.80,NE,40,0.0,0.0,42,0.00,,,0.00,TxWx,2013-05-04 17:06:00,
2013-05-04 12:11:00,25.3,3.0,29.80,North,11,0.0,0.0,41,0.00,,,0.00,TxWx,2013-05-04 17:11:00,
2013-05-04 12:17:00,24.5,3.0,29.79,NNE,30,0.0,0.0,40,0.00,,,0.00,TxWx,2013-05-04 17:17:00,
2013-05-04 12:22:00,24.8,4.0,29.79,NNE,33,0.0,0.0,41,0.00,,,0.00,TxWx,2013-05-04 17:22:00,
2013-05-04 12:27:00,24.7,4.0,29.79,NE,45,0.0,0.0,41,0.00,,,0.00,TxWx,2013-05-04 17:27:00,
2013-05-04 12:32:00,25.2,3.0,29.79,NNE,30,0.0,0.0,40,0.00,,,0.00,TxWx,2013-05-04 17:32:00,
2013-05-04 12:37:00,25.0,3.0,29.79,NNE,32,0.0,0.0,40,0.00,,,0.00,TxWx,2013-05-04 17:37:00,
2013-05-04 12:42:00,24.9,3.0,29.79,NE,36,0.0,0.0,40,0.00,,,0.00,TxWx,2013-05-04 17:42:00,
2013-05-04 12:47:00,24.9,3.0,29.79,NNE,23,0.0,0.0,39,0.00,,,0.00,TxWx,2013-05-04 17:47:00,
2013-05-04 12:52:00,25.2,3.0,29.78,NNE,15,0.0,0.0,39,0.00,,,0.00,TxWx,2013-05-04 17:52:00,
2013-05-04 12:58:00,25.2,3.0,29.78,NE,35,0.0,0.0,40,0.00,,,0.00,TxWx,2013-05-04 17:58:00,
2013-05-04 13:03:00,25.3,3.0,29.78,NE,36,0.0,0.0,40,0.00,,,0.00,TxWx,2013-05-04 18:03:00,
2013-05-04 13:08:00,25.2,2.0,29.78,NNE,19,0.0,0.0,39,0.00,,,0.00,TxWx,2013-05-04 18:08:00,
2013-05-04 13:14:00,25.4,2.0,29.78,NE,38,0.0,0.0,38,0.00,,,0.00,TxWx,2013-05-04 18:14:00,
2013-05-04 13:19:00,25.4,3.0,29.78,NE,37,0.0,0.0,39,0.00,,,0.00,TxWx,2013-05-04 18:19:00,
2013-05-04 13:24:00,25.2,2.0,29.78,NNE,32,0.0,0.0,38,0.00,,,0.00,TxWx,2013-05-04 18:24:00,
2013-05-04 13:30:00,25.0,2.0,29.77,NE,37,0.0,0.0,38,0.00,,,0.00,TxWx,2013-05-04 18:30:00,
2013-05-04 13:35:00,25.5,2.0,29.77,NNE,28,0.0,0.0,39,0.00,,,0.00,TxWx,2013-05-04 18:35:00,
2013-05-04 13:40:00,25.5,3.0,29.77,NNE,17,0.0,0.0,39,0.00,,,0.00,TxWx,2013-05-04 18:40:00,
2013-05-04 13:45:00,25.4,2.0,29.77,NNE,25,0.0,0.0,38,0.00,,,0.00,TxWx,2013-05-04 18:45:00,
2013-05-04 13:50:00,25.4,3.0,29.77,NNE,30,0.0,0.0,39,0.00,,,0.00,TxWx,2013-05-04 18:50:00,
2013-05-04 13:55:00,25.2,1.0,29.77,NE,45,0.0,0.0,37,0.00,,,0.00,TxWx,2013-05-04 18:55:00,
2013-05-04 14:01:00,25.4,2.0,29.77,NE,51,0.0,0.0,38,0.00,,,0.00,TxWx,2013-05-04 19:01:00,
2013-05-04 14:06:00,25.8,3.0,29.77,NE,37,0.0,0.0,38,0.00,,,0.00,TxWx,2013-05-04 19:06:00,
2013-05-04 14:11:00,25.7,3.0,29.77,NNE,12,0.0,0.0,39,0.00,,,0.00,TxWx,2013-05-04 19:11:00,
2013-05-04 14:16:00,26.0,3.0,29.76,NE,37,0.0,0.0,38,0.00,,,0.00,TxWx,2013-05-04 19:16:00,
2013-05-04 14:21:00,25.8,2.0,29.76,NNE,33,0.0,0.0,37,0.00,,,0.00,TxWx,2013-05-04 19:21:00,
2013-05-04 14:26:00,25.6,2.0,29.76,NNE,27,0.0,0.0,36,0.00,,,0.00,TxWx,2013-05-04 19:26:00,
2013-05-04 14:31:00,25.6,2.0,29.76,NNE,23,0.0,0.0,37,0.00,,,0.00,TxWx,2013-05-04 19:31:00,
2013-05-04 14:37:00,25.7,2.0,29.76,NNE,16,0.0,0.0,37,0.00,,,0.00,TxWx,2013-05-04 19:37:00,
2013-05-04 14:42:00,25.4,1.0,29.76,NNE,26,0.0,0.0,37,0.00,,,0.00,TxWx,2013-05-04 19:42:00,
2013-05-04 14:47:00,25.4,2.0,29.76,NNE,27,0.0,0.0,38,0.00,,,0.00,TxWx,2013-05-04 19:47:00,
2013-05-04 14:52:00,25.4,2.0,29.76,NNE,15,0.0,0.0,38,0.00,,,0.00,TxWx,2013-05-04 19:52:00,
2013-05-04 14:58:00,25.6,2.0,29.76,NNE,29,0.0,0.0,37,0.00,,,0.00,TxWx,2013-05-04 19:58:00,
2013-05-04 15:03:00,25.9,3.0,29.76,NNE,30,0.0,0.0,38,0.00,,,0.00,TxWx,2013-05-04 20:03:00,
2013-05-04 15:08:00,25.3,0.0,29.76,NNE,25,0.0,0.0,35,0.00,,,0.00,TxWx,2013-05-04 20:08:00,
2013-05-04 15:14:00,25.6,1.0,29.76,NNE,12,0.0,0.0,35,0.00,,,0.00,TxWx,2013-05-04 20:14:00,
2013-05-04 15:19:00,25.5,0.0,29.76,NNE,25,0.0,0.0,34,0.00,,,0.00,TxWx,2013-05-04 20:19:00,
2013-05-04 15:24:00,25.5,0.0,29.76,NNE,26,0.0,0.0,34,0.00,,,0.00,TxWx,2013-05-04 20:24:00,
2013-05-04 15:29:00,25.7,0.0,29.76,NNE,22,0.0,0.0,34,0.00,,,0.00,TxWx,2013-05-04 20:29:00,
2013-05-04 15:34:00,25.9,1.0,29.76,North,349,0.0,0.0,35,0.00,,,0.00,TxWx,2013-05-04 20:34:00,
2013-05-04 15:39:00,25.9,0.0,29.76,NNE,20,0.0,0.0,34,0.00,,,0.00,TxWx,2013-05-04 20:39:00,
2013-05-04 15:45:00,25.4,-2.0,29.76,NNE,15,0.0,0.0,32,0.00,,,0.00,TxWx,2013-05-04 20:45:00,
2013-05-04 15:50:00,25.7,0.0,29.75,NNE,29,0.0,0.0,33,0.00,,,0.00,TxWx,2013-05-04 20:50:00,
2013-05-04 15:55:00,25.6,-1.0,29.75,NNE,13,0.0,0.0,32,0.00,,,0.00,TxWx,2013-05-04 20:55:00,
2013-05-04 16:00:00,25.4,-2.0,29.76,NNE,25,0.0,0.0,32,0.00,,,0.00,TxWx,2013-05-04 21:00:00,
2013-05-04 16:05:00,25.8,-1.0,29.76,NNE,17,0.0,0.0,32,0.00,,,0.00,TxWx,2013-05-04 21:05:00,
2013-05-04 16:10:00,25.7,-1.0,29.76,NNE,19,0.0,0.0,32,0.00,,,0.00,TxWx,2013-05-04 21:10:00,
2013-05-04 16:15:00,25.9,-1.0,29.76,North,10,0.0,0.0,32,0.00,,,0.00,TxWx,2013-05-04 21:15:00,
2013-05-04 16:21:00,25.9,-1.0,29.76,NNE,16,0.0,0.0,32,0.00,,,0.00,TxWx,2013-05-04 21:21:00,
2013-05-04 16:26:00,25.8,-2.0,29.76,NNE,19,0.0,0.0,31,0.00,,,0.00,TxWx,2013-05-04 21:26:00,
2013-05-04 16:31:00,25.9,-1.0,29.76,NNE,29,0.0,0.0,32,0.00,,,0.00,TxWx,2013-05-04 21:31:00,
2013-05-04 16:36:00,26.0,-2.0,29.75,NNE,23,0.0,0.0,31,0.00,,,0.00,TxWx,2013-05-04 21:36:00,
2013-05-04 16:42:00,25.8,-2.0,29.76,NNE,19,0.0,0.0,30,0.00,,,0.00,TxWx,2013-05-04 21:42:00,
2013-05-04 16:47:00,26.0,-3.0,29.76,NNE,21,0.0,0.0,29,0.00,,,0.00,TxWx,2013-05-04 21:47:00,
2013-05-04 16:52:00,26.1,-3.0,29.76,NNE,15,0.0,0.0,29,0.00,,,0.00,TxWx,2013-05-04 21:52:00,
2013-05-04 16:57:00,26.1,-2.0,29.76,NNE,19,0.0,0.0,30,0.00,,,0.00,TxWx,2013-05-04 21:57:00,
2013-05-04 17:03:00,25.9,-3.0,29.75,NNE,27,0.0,0.0,30,0.00,,,0.00,TxWx,2013-05-04 22:03:00,
2013-05-04 17:08:00,26.2,-2.0,29.76,North,350,0.0,0.0,31,0.00,,,0.00,TxWx,2013-05-04 22:08:00,
2013-05-04 17:13:00,26.2,-3.0,29.75,NNE,19,0.0,0.0,30,0.00,,,0.00,TxWx,2013-05-04 22:13:00,
2013-05-04 17:19:00,26.6,-1.0,29.76,NE,36,0.0,0.0,30,0.00,,,0.00,TxWx,2013-05-04 22:19:00,
2013-05-04 17:24:00,26.1,-3.0,29.75,NNE,31,0.0,0.0,29,0.00,,,0.00,TxWx,2013-05-04 22:24:00,
2013-05-04 17:29:00,26.1,-3.0,29.76,NE,39,0.0,0.0,29,0.00,,,0.00,TxWx,2013-05-04 22:29:00,
2013-05-04 17:34:00,25.9,-3.0,29.76,NNE,33,0.0,0.0,29,0.00,,,0.00,TxWx,2013-05-04 22:34:00,
2013-05-04 17:39:00,25.9,-3.0,29.76,NE,37,0.0,0.0,29,0.00,,,0.00,TxWx,2013-05-04 22:39:00,
2013-05-04 17:45:00,25.8,-3.0,29.76,NNE,27,0.0,0.0,30,0.00,,,0.00,TxWx,2013-05-04 22:45:00,
2013-05-04 17:50:00,25.9,-2.0,29.76,NNE,32,0.0,0.0,30,0.00,,,0.00,TxWx,2013-05-04 22:50:00,
2013-05-04 17:55:00,26.0,-3.0,29.76,NNE,27,0.0,0.0,30,0.00,,,0.00,TxWx,2013-05-04 22:55:00,
2013-05-04 18:00:00,25.9,-3.0,29.76,NNE,26,0.0,0.0,30,0.00,,,0.00,TxWx,2013-05-04 23:00:00,
2013-05-04 18:05:00,25.7,-3.0,29.76,NNE,12,0.0,0.0,29,0.00,,,0.00,TxWx,2013-05-04 23:05:00,
2013-05-04 18:11:00,25.6,-3.0,29.77,NNE,25,0.0,0.0,29,0.00,,,0.00,TxWx,2013-05-04 23:11:00,
2013-05-04 18:16:00,25.7,-3.0,29.77,NNW,343,0.0,0.0,29,0.00,,,0.00,TxWx,2013-05-04 23:16:00,
2013-05-04 18:21:00,25.6,-3.0,29.77,NNE,19,0.0,0.0,29,0.00,,,0.00,TxWx,2013-05-04 23:21:00,
2013-05-04 18:26:00,25.9,-3.0,29.77,NNW,344,0.0,0.0,30,0.00,,,0.00,TxWx,2013-05-04 23:26:00,
2013-05-04 18:31:00,25.6,-3.0,29.77,NNW,342,0.0,0.0,30,0.00,,,0.00,TxWx,2013-05-04 23:31:00,
2013-05-04 18:36:00,25.7,-3.0,29.77,NNW,347,0.0,0.0,30,0.00,,,0.00,TxWx,2013-05-04 23:36:00,
2013-05-04 18:41:00,25.7,-3.0,29.78,NNE,29,0.0,0.0,29,0.00,,,0.00,TxWx,2013-05-04 23:41:00,
2013-05-04 18:46:00,25.5,-3.0,29.78,NNE,14,0.0,0.0,30,0.00,,,0.00,TxWx,2013-05-04 23:46:00,
2013-05-04 18:52:00,25.4,-3.0,29.78,NNE,19,0.0,0.0,30,0.00,,,0.00,TxWx,2013-05-04 23:52:00,
2013-05-04 18:57:00,25.4,-3.0,29.78,NNE,22,0.0,0.0,30,0.00,,,0.00,TxWx,2013-05-04 23:57:00,
2013-05-04 19:02:00,25.2,-3.0,29.78,NNE,27,0.0,0.0,30,0.00,,,0.00,TxWx,2013-05-05 00:02:00,
2013-05-04 19:07:00,25.2,-4.0,29.79,NNE,23,0.0,0.0,29,0.00,,,0.00,TxWx,2013-05-05 00:07:00,
2013-05-04 19:12:00,25.1,-5.0,29.79,NNE,28,0.0,0.0,28,0.00,,,0.00,TxWx,2013-05-05 00:12:00,
2013-05-04 19:17:00,25.1,-4.0,29.79,NE,37,0.0,0.0,29,0.00,,,0.00,TxWx,2013-05-05 00:17:00,
2013-05-04 19:23:00,25.0,-4.0,29.79,NNE,15,0.0,0.0,29,0.00,,,0.00,TxWx,2013-05-05 00:23:00,
2013-05-04 19:28:00,24.9,-3.0,29.79,NNE,18,0.0,0.0,30,0.00,,,0.00,TxWx,2013-05-05 00:28:00,
2013-05-04 19:33:00,25.0,-3.0,29.80,NNE,31,0.0,0.0,30,0.00,,,0.00,TxWx,2013-05-05 00:33:00,
2013-05-04 19:38:00,24.9,-3.0,29.80,North,4,0.0,0.0,30,0.00,,,0.00,TxWx,2013-05-05 00:38:00,
2013-05-04 19:43:00,24.9,-3.0,29.80,NNE,24,0.0,0.0,31,0.00,,,0.00,TxWx,2013-05-05 00:43:00,
2013-05-04 19:49:00,24.7,-2.0,29.80,NNE,27,0.0,0.0,31,0.00,,,0.00,TxWx,2013-05-05 00:49:00,
2013-05-04 19:54:00,24.6,-2.0,29.80,NNE,20,0.0,0.0,32,0.00,,,0.00,TxWx,2013-05-05 00:54:00,
2013-05-04 19:59:00,24.6,-2.0,29.80,NNE,18,0.0,0.0,32,0.00,,,0.00,TxWx,2013-05-05 00:59:00,
2013-05-04 20:04:00,24.3,-2.0,29.80,NNE,21,0.0,0.0,33,0.00,,,0.00,TxWx,2013-05-05 01:04:00,
2013-05-04 20:10:00,24.2,-2.0,29.81,North,11,0.0,0.0,34,0.00,,,0.00,TxWx,2013-05-05 01:10:00,
2013-05-04 20:15:00,24.2,-1.0,29.81,North,9,0.0,0.0,34,0.00,,,0.00,TxWx,2013-05-05 01:15:00,
2013-05-04 20:20:00,24.0,-1.0,29.81,NE,34,0.0,0.0,35,0.00,,,0.00,TxWx,2013-05-05 01:20:00,
2013-05-04 20:25:00,23.9,-1.0,29.81,NNE,26,0.0,0.0,35,0.00,,,0.00,TxWx,2013-05-05 01:25:00,
2013-05-04 20:30:00,23.8,-1.0,29.81,NNE,24,0.0,0.0,35,0.00,,,0.00,TxWx,2013-05-05 01:30:00,
2013-05-04 20:36:00,23.7,-1.0,29.81,NNE,21,0.0,0.0,35,0.00,,,0.00,TxWx,2013-05-05 01:36:00,
2013-05-04 20:41:00,23.5,-2.0,29.81,NNE,18,0.0,0.0,35,0.00,,,0.00,TxWx,2013-05-05 01:41:00,
2013-05-04 20:46:00,23.6,0.0,29.82,NNE,31,0.0,0.0,36,0.00,,,0.00,TxWx,2013-05-05 01:46:00,
2013-05-04 20:51:00,23.4,-1.0,29.82,NNE,30,0.0,0.0,36,0.00,,,0.00,TxWx,2013-05-05 01:51:00,
2013-05-04 20:56:00,23.4,-1.0,29.82,NNE,19,0.0,0.0,36,0.00,,,0.00,TxWx,2013-05-05 01:56:00,
2013-05-04 21:01:00,23.4,-1.0,29.82,NNE,19,0.0,0.0,36,0.00,,,0.00,TxWx,2013-05-05 02:01:00,
2013-05-04 21:07:00,23.2,-1.0,29.82,NNE,16,0.0,0.0,36,0.00,,,0.00,TxWx,2013-05-05 02:07:00,
2013-05-04 21:12:00,22.9,-1.0,29.82,NNE,21,0.0,0.0,37,0.00,,,0.00,TxWx,2013-05-05 02:12:00,
2013-05-04 21:17:00,22.9,-1.0,29.82,NE,35,0.0,0.0,37,0.00,,,0.00,TxWx,2013-05-05 02:17:00,
2013-05-04 21:23:00,22.5,-1.0,29.82,NE,56,0.0,0.0,37,0.00,,,0.00,TxWx,2013-05-05 02:23:00,
2013-05-04 21:28:00,22.0,-1.0,29.82,ENE,57,0.0,0.0,38,0.00,,,0.00,TxWx,2013-05-05 02:28:00,
2013-05-04 21:33:00,21.9,-1.0,29.82,NW,317,0.0,0.0,38,0.00,,,0.00,TxWx,2013-05-05 02:33:00,
2013-05-04 21:38:00,21.7,0.0,29.81,NNW,332,0.0,0.0,39,0.00,,,0.00,TxWx,2013-05-05 02:38:00,
2013-05-04 21:44:00,21.6,0.0,29.81,North,10,0.0,0.0,40,0.00,,,0.00,TxWx,2013-05-05 02:44:00,
2013-05-04 21:49:00,21.4,-1.0,29.81,NNE,14,0.0,0.0,40,0.00,,,0.00,TxWx,2013-05-05 02:49:00,
2013-05-04 21:58:00,21.0,0.0,29.81,NNE,17,0.0,0.0,41,0.00,,,0.00,TxWx,2013-05-05 02:58:00,
2013-05-04 22:03:00,20.8,0.0,29.81,NNE,13,0.0,0.0,42,0.00,,,0.00,TxWx,2013-05-05 03:03:00,
2013-05-04 22:08:00,21.1,0.0,29.81,NNE,29,0.0,0.0,41,0.00,,,0.00,TxWx,2013-05-05 03:08:00,
2013-05-04 22:13:00,21.3,0.0,29.80,NNE,26,0.0,0.0,41,0.00,,,0.00,TxWx,2013-05-05 03:13:00,
2013-05-04 22:19:00,21.1,0.0,29.80,NNE,32,0.0,0.0,41,0.00,,,0.00,TxWx,2013-05-05 03:19:00,
2013-05-04 22:24:00,21.0,0.0,29.81,NE,47,0.0,0.0,42,0.00,,,0.00,TxWx,2013-05-05 03:24:00,
2013-05-04 22:29:00,20.8,1.0,29.80,NNE,26,0.0,0.0,42,0.00,,,0.00,TxWx,2013-05-05 03:29:00,
2013-05-04 22:34:00,20.9,1.0,29.80,NNE,23,0.0,0.0,43,0.00,,,0.00,TxWx,2013-05-05 03:34:00,
2013-05-04 22:39:00,20.8,1.0,29.81,NE,38,0.0,0.0,43,0.00,,,0.00,TxWx,2013-05-05 03:39:00,
2013-05-04 22:44:00,20.6,1.0,29.81,ENE,63,0.0,0.0,43,0.00,,,0.00,TxWx,2013-05-05 03:44:00,
2013-05-04 22:50:00,20.5,1.0,29.81,ENE,63,0.0,0.0,43,0.00,,,0.00,TxWx,2013-05-05 03:50:00,
2013-05-04 22:55:00,20.3,0.0,29.81,NE,49,0.0,0.0,43,0.00,,,0.00,TxWx,2013-05-05 03:55:00,
2013-05-04 23:00:00,20.3,0.0,29.81,NE,55,0.0,0.0,44,0.00,,,0.00,TxWx,2013-05-05 04:00:00,
2013-05-04 23:01:00,20.2,1.0,29.81,NE,56,0.0,0.0,44,0.00,,,0.00,TxWx,2013-05-05 04:01:00,
2013-05-04 23:02:00,20.3,1.0,29.81,NE,53,0.0,0.0,44,0.00,,,0.00,TxWx,2013-05-05 04:02:00,
2013-05-04 23:03:00,20.3,1.0,29.81,NE,52,0.0,0.0,44,0.00,,,0.00,TxWx,2013-05-05 04:03:00,
2013-05-04 23:08:00,20.4,1.0,29.81,NE,41,0.0,0.0,44,0.00,,,0.00,TxWx,2013-05-05 04:08:00,
2013-05-04 23:14:00,20.4,1.0,29.81,NNE,26,0.0,0.0,45,0.00,,,0.00,TxWx,2013-05-05 04:14:00,
2013-05-04 23:19:00,20.3,1.0,29.82,NNE,18,0.0,0.0,46,0.00,,,0.00,TxWx,2013-05-05 04:19:00,
2013-05-04 23:24:00,20.2,2.0,29.82,North,352,0.0,0.0,46,0.00,,,0.00,TxWx,2013-05-05 04:24:00,
2013-05-04 23:29:00,19.9,2.0,29.82,NNW,344,0.0,0.0,47,0.00,,,0.00,TxWx,2013-05-05 04:29:00,
2013-05-04 23:34:00,19.7,2.0,29.82,NNE,19,0.0,0.0,48,0.00,,,0.00,TxWx,2013-05-05 04:34:00,
2013-05-04 23:39:00,19.8,2.0,29.82,NNE,29,0.0,0.0,48,0.00,,,0.00,TxWx,2013-05-05 04:39:00,
2013-05-04 23:44:00,19.5,3.0,29.82,NNE,26,0.0,0.0,49,0.00,,,0.00,TxWx,2013-05-05 04:44:00,
2013-05-04 23:49:00,19.5,2.0,29.82,NNE,24,0.0,0.0,50,0.00,,,0.00,TxWx,2013-05-05 04:49:00,
2013-05-04 23:55:00,19.3,3.0,29.82,NNW,340,0.0,0.0,52,0.00,,,0.00,TxWx,2013-05-05 04:55:00,